Regional Weather Roundup
Issued by NWS Cleveland, OH

Home | Current Version | Previous Version | Text Only | Print | Product List | Glossary On
Versions: 1 2 3 4 5 6 7 8 9 10 11 12 13 14 15 16 17 18 19 20 21 22 23 24 25 26 27 28 29 30 31 32 33 34 35 36 37 38 39 40 41 42 43 44 45 46 47 48 49 50
000
ASUS41 KCLE 281012
RWRCLE
OHIO REGIONAL WEATHER ROUNDUP
NATIONAL WEATHER SERVICE WILMINGTON, OH
600 AM EDT WED SEP 28 2016

NOTE: "FAIR" INDICATES FEW OR NO CLOUDS BELOW 12,000 FEET WITH NO
SIGNIFICANT WEATHER AND/OR OBSTRUCTIONS TO VISIBILITY.

OHZ001>008-015>018-024>027-034-035-043-044-281100-
   NORTHWEST OHIO

CITY           SKY/WX    TMP DP  RH WIND       PRES   REMARKS
DEFIANCE       FAIR      51  46  83 E3        29.79S
FINDLAY        LGT RAIN  58  48  69 W5        29.82R
TOLEDO EXPRESS FAIR      49  48  97 E3        29.80S
TOLEDO EXEC    FAIR      54  49  83 W5        29.83R
LIMA           CLOUDY    55  52  89 SE7       29.81F
$$

OHZ009>014-019>023-028>033-038-089-281100-
   NORTHEAST OHIO

CITY           SKY/WX    TMP DP  RH WIND       PRES   REMARKS
CLE-HOPKINS    FAIR      58  44  60 S10       29.87F
CLE-LAKEFRONT  FAIR      60  43  53 SE14      29.84S
CUY CO. ARPT   NOT AVBL
LORAIN-ELYRIA  FAIR      54  44  69 S8        29.85S
ASHTABULA      FAIR      52  43  71 SE9       29.92R
AKRON-CANTON   FAIR      54  42  64 S7        29.89F
WOOSTER        FAIR      49  43  80 SE3       29.88F
MANSFIELD      FAIR      56  45  66 SE12      29.84F
YOUNGSTOWN     FAIR      51  42  71 SE10      29.92R
$$

OHZ042-051>053-060>062-070>072-077>081-281100-
  SOUTHWEST OHIO

CITY           SKY/WX    TMP DP  RH WIND       PRES   REMARKS
CINC-COVINGTON MOCLDY    57  48  72 S12       29.82F
CINC-LUNKEN    FAIR      55  49  80 CALM      29.84F
HAMILTON       CLOUDY    57  49  74 SE3       29.82F
DAYTON         LGT RAIN  57  51  80 VRB5      29.82F
WRIGHT-PAT AFB MOCLDY    58  49  71 S6        29.80F
DAYTON GENERAL FAIR      58  47  66 S10       29.81F
WILMINGTON     FAIR      56  46  69 S10       29.83F
$$

OHZ036-037-039>041-045>050-054>059-063>069-073>076-082>088-281100-
  CENTRAL AND SOUTHEAST OHIO

CITY           SKY/WX    TMP DP  RH WIND       PRES   REMARKS
COLUMBUS       MOCLDY    57  47  69 SE5       29.85F
OSU AIRPORT    FAIR      55  46  71 SE7       29.84F
BOLTON FIELD   FAIR      51  46  86 S7        29.84F
RICKENBACK AFB FAIR      54  45  71 S7        29.85S
NEWARK         FAIR      46  44  93 CALM      29.87S
MARION         CLOUDY    55  46  71 S9        29.83F
LANCASTER      FAIR      52  45  77 SE6       29.87S
ZANESVILLE     FAIR      50  43  77 SE3       29.89S
NEW PHILLY     FAIR      47  45  93 E3        29.91S
$$



USA.gov is the U.S. government's official web portal to all federal, state and local government web resources and services.